Tracking 27126 objects as of 31-Mar-2023
HD Live streaming from Space Station
objects crossing your sky now

STARLINK-3136

Track STARLINK-3136 now!
10-day predictions
STARLINK-3136 is classified as:


NORAD ID: 49443
Int'l Code: 2021-104AM
Perigee: 546.0 km
Apogee: 547.7 km
Inclination: 53.2 °
Period: 95.4 minutes
Semi major axis: 6917 km
RCS: Unknown
Launch date: November 13, 2021
Source: United States (US)
Launch site: AIR FORCE EASTERN TEST RANGE (AFETR)
Your satellite tracking list
Your tracking list is empty




NASA's NSSDC Master Catalog

Two Line Element Set (TLE):
1 49443U 21104AM  23089.45708735  .00019358  00000-0  12311-2 0  9999
2 49443  53.2162 356.0284 0001223  93.7672 266.3460 15.08838666 77669
Source of the keplerian elements: AFSPC